User: anonymous   Login
Location: Newark
(11.5710°N, 104.9241°E)
Time: 04:23:32
(UTC+00:00)
Language:

BEESAT 3 - Orbit

View from above orbital plane
View from above orbital plane
View from above satellite
View from above satellite

Ground track
Ground track

The orbit data is extracted from the following two-line orbital elements,

1 39134U 13015E   20092.38099890  .00001435  00000-0  72961-4 0  9991
2 39134  64.8629 167.9012 0036929 256.0973 103.6046 15.20871988384334
Epoch (UTC): 01 April 2020 09:08:38
Eccentricity: 0.0036929
inclination: 64.8629°
perigee height: 478 km
apogee height: 528 km
right ascension of ascending node: 167.9012°
argument of perigee: 256.0973°
revolutions per day: 15.20871988
mean anomaly at epoch: 103.6046°
orbit number at epoch: 38433

The dashed part of the orbit path shows where the satellite is in the earth's shadow,  

DLR